Location: Bratislava
(48.1500°N, 17.1170°E)
Time: 16:39:32
(UTC+02:00)

ISS - Pass Details

Date: 30 March 2019
Orbit: 408 x 410 km, 51.6° (Epoch: 25 April)

Event Time Altitude Azimuth Distance (km) Brightness Sun altitude
Rises 19:14:18 0° 278° (W) 2,337 2.1 -9.9°
Reaches altitude 10° 19:16:27 10° 285° (WNW) 1,475 0.7 -10.3°
Maximum altitude 19:19:38 43° 359° (N) 588 -2.9 -10.8°
Enters shadow 19:22:26 13° 70° (ENE) 1,328 -1.7 -11.2°
